Location: Ostrava
(49.8330°N, 18.2830°E)
Time: 22:58:06
(UTC+02:00)

Explorer 7 - Visible Passes

Search period start: 29 August 2015 00:00
Search period end: 08 September 2015 00:00
Orbit: 488 x 692 km, 50.3° (Epoch: 29 August)

Date Brightness Start Highest point End Pass type
(mag) Time Alt. Az. Time Alt. Az. Time Alt. Az.
05 Sep 9.0 04:50:04 10° S 04:52:16 15° SE 04:54:33 10° ESE visible
06 Sep 8.4 04:56:29 10° SSW 04:59:31 23° SE 05:02:34 10° E visible
07 Sep 7.8 05:03:42 12° SSW 05:06:49 34° SSE 05:10:16 10° E visible
